[TLELIST] Archives

 

Current TLEs

December 18th 2007 PDT

HST 1 20580U 90037B 07350.68133076 .00000380 00000-0 16576-4 0 286 2 20580 028.4676 080.0307 0003795 228.4973 131.5291 15.00314713767396 ISS (ZARYA) 1 25544U 98067A 07351.39905093 .00024374 00000-0 14602-3 0 5255 2 25544 051.6405 239.2371 0000687 355.5250 339.1506 15.77674200519670 CXO 1 25867U 99040B 07347.41666667 .00000492 00000-0 10000-3 0 1455 2 25867 062.8301 085.2741 6507512 281.2250 350.9498 00.37805367 2923 ____________________________________________________________________ These 2-Line ...Continue Reading

Current TLEs

December 17th 2007 PDT

HST 1 20580U 90037B 07348.68567561 +.00000367 +00000-0 +15571-4 0 00361 2 20580 028.4669 093.0434 0003812 209.2681 150.7699 15.00313663767091 ISS (ZARYA) 1 25544U 98067A 07350.28061578 .00029064 00000-0 17359-3 0 5201 2 25544 051.6402 245.0088 0000790 336.5074 121.7125 15.77634216519502 CXO 1 25867U 99040B 07347.41666667 .00000492 00000-0 10000-3 0 1455 2 25867 062.8301 085.2741 6507512 281.2250 350.9498 00.37805367 2923 ____________________________________________________________________ These 2-Line ...Continue Reading

Current TLEs

December 16th 2007 PDT

HST 1 20580U 90037B 07347.75436994 .00000345 00000-0 13907-4 0 269 2 20580 028.4667 099.1162 0003786 199.6582 160.3868 15.00313113766955 ISS (ZARYA) 1 25544U 98067A 07349.33112544 .00030916 00000-0 18476-3 0 5169 2 25544 051.6398 249.9108 0000663 342.2866 119.7880 15.77585625519351 CXO 1 25867U 99040B 07347.41666667 .00000492 00000-0 10000-3 0 1455 2 25867 062.8301 085.2741 6507512 281.2250 350.9498 00.37805367 2923 ____________________________________________________________________ These 2-Line ...Continue Reading

Current TLEs

December 15th 2007 PDT

HST 1 20580U 90037B 07347.75436994 .00000345 00000-0 13907-4 0 269 2 20580 028.4667 099.1162 0003786 199.6582 160.3868 15.00313113766955 ISS (ZARYA) 1 25544U 98067A 07348.31698074 .00034760 00000-0 20765-3 0 5090 2 25544 051.6405 255.1434 0000641 338.8104 119.8608 15.77531738519190 CXO 1 25867U 99040B 07347.41666667 .00000492 00000-0 10000-3 0 1455 2 25867 062.8301 085.2741 6507512 281.2250 350.9498 00.37805367 2923 ____________________________________________________________________ These 2-Line ...Continue Reading

Current TLEs

December 14th 2007 PDT

HST 1 20580U 90037B 07345.69219173 +.00000350 +00000-0 +14293-4 0 00285 2 20580 028.4666 112.5684 0003847 179.6830 180.3762 15.00312453766642 ISS (ZARYA) 1 25544U 98067A 07346.85637704 .00028776 00000-0 17362-3 0 4997 2 25544 051.6391 262.6816 0000510 265.3878 172.9821 15.77410771518962 CXO 1 25867U 99040B 07347.41666667 .00000492 00000-0 10000-3 0 1455 2 25867 062.8301 085.2741 6507512 281.2250 350.9498 00.37805367 2923 ____________________________________________________________________ These 2-Line ...Continue Reading

Current TLEs

December 13th 2007 PDT

HST 1 20580U 90037B 07344.56131931 +.00000350 +00000-0 +14271-4 0 00405 2 20580 028.4664 119.9430 0003803 168.0313 192.0358 15.00311994766471 ISS (ZARYA) 1 25544U 98067A 07346.17143946 .00026795 00000-0 16233-3 0 4975 2 25544 051.6400 266.2186 0000622 346.6140 159.6006 15.77361742518850 CXO 1 25867U 99040B 07344.79166667 .00000447 00000-0 10000-3 0 1447 2 25867 062.8192 085.3344 6502057 281.2498 353.6024 00.37804534 2913 ____________________________________________________________________ These 2-Line ...Continue Reading

Current TLEs

December 12th 2007 PDT

HST 1 20580U 90037B 07343.82957823 +.00000345 +00000-0 +13918-4 0 00354 2 20580 028.4664 124.7138 0003799 160.3875 199.6861 15.00311692766367 ISS (ZARYA) 1 25544U 98067A 07344.95778571 .00022461 00000-0 13726-3 0 4911 2 25544 051.6396 272.4814 0000598 306.9172 143.0246 15.77281619518663 CXO 1 25867U 99040B 07344.79166667 .00000447 00000-0 10000-3 0 1447 2 25867 062.8192 085.3344 6502057 281.2498 353.6024 00.37804534 2913 ____________________________________________________________________ These 2-Line ...Continue Reading

Current TLEs

December 11th 2007 PDT

HST 1 20580U 90037B 07342.76522705 +.00000342 +00000-0 +13645-4 0 00368 2 20580 028.4661 131.6552 0003754 150.1255 209.9546 15.00311240766208 ISS (ZARYA) 1 25544U 98067A 07344.20651862 .00020917 00000-0 12834-3 0 4870 2 25544 051.6392 276.3581 0000579 315.2246 186.0130 15.77241873518541 CXO 1 25867U 99040B 07344.79166667 .00000447 00000-0 10000-3 0 1447 2 25867 062.8192 085.3344 6502057 281.2498 353.6024 00.37804534 2913 ____________________________________________________________________ These 2-Line ...Continue Reading

Current TLEs

December 10th 2007 PDT

HST 1 20580U 90037B 07341.83391998 .00000307 00000-0 10942-4 0 226 2 20580 028.4664 137.7282 0003775 140.1147 219.9725 15.00310668766067 ISS (ZARYA) 1 25544U 98067A 07343.37458451 .00020246 00000-0 12456-3 0 4837 2 25544 051.6404 280.6485 0000524 313.0633 141.2500 15.77203764518419 CXO 1 25867U 99040B 07342.16666667 .00000419 00000-0 10000-3 0 1439 2 25867 062.8090 085.3866 6495675 281.2926 356.2314 00.37804177 2905 ____________________________________________________________________ These 2-Line ...Continue Reading

Current TLEs

December 9th 2007 PDT

HST 1 20580U 90037B 07341.83391998 .00000307 00000-0 10942-4 0 226 2 20580 028.4664 137.7282 0003775 140.1147 219.9725 15.00310668766067 ISS (ZARYA) 1 25544U 98067A 07342.36949172 .00019366 00000-0 11957-3 0 4779 2 25544 051.6400 285.8340 0000534 307.7889 195.8854 15.77158863518254 CXO 1 25867U 99040B 07342.16666667 .00000419 00000-0 10000-3 0 1439 2 25867 062.8090 085.3866 6495675 281.2926 356.2314 00.37804177 2905 ____________________________________________________________________ These 2-Line ...Continue Reading
  • This mailing list is a public mailing list - anyone may join or leave, at any time.
  • This mailing list is announce-only.

International Space Station (ISS) / Hubble Space Telescope (HST) / Chandra X-Ray Observatory Orbital Data via EMAIL

Privacy Policy:

Private list